Skip Page Navigation
NASA JPL Caltech
NASA Logo - Jet Propulsion Laboratory + View the NASA Portal
+ Near-Earth Object (NEO) Program
Search JPL
JPL Home Earth Solar System Stars & Galaxies Technology
JPL Solar System Dynamics
BODIES ORBITS EPHEMERIDES TOOLS PHYSICAL DATA DISCOVERY FAQ SITE MAP
JPL Small-Body Database Browser
Search: [ help ]  
24P/Schaumasse
Classification: Jupiter-family Comet [NEO]          SPK-ID: 1000077
Ephemeris | Orbit Diagram | Orbital Elements | Physical Parameters | Discovery Circumstances | Close-Approach Data ]

[ show orbit diagram ]
:
Orbital Elements at Epoch 2452120.5 (2001-Jul-30.0) TDB
Reference: JPL K014/19 (heliocentric ecliptic J2000)
 Element Value Uncertainty (1-sigma)   Units 
e 0.704800355727747 7.4105e-08  
a 4.08201725729564 1.2531e-06 AU
q 1.20501004226687 3.3047e-07 AU
i 11.7515297577684 1.1858e-05 deg
node 79.83103830437537 3.6331e-05 deg
peri 57.87449254945604 9.2436e-05 deg
M 10.5571002171822 1.8434e-05 deg
tp 2452032.160929561734
(2001-May-02.66092956)
0.00011744 JED
period 3012.386422742899
8.25
0.0013871
3.798e-06
d
yr
n .119506580325178 5.5029e-08 deg/d
Q 6.959024472324403 2.1363e-06 AU

Additional Model Parameters
 Parameter Value Uncertainty (1-sigma) 
A1 [EST] 1.097998072375375E-9 1.109E-10
A2 [EST] -5.858502843175285E-10 5.951E-13
  Orbit Determination Parameters
   # obs. used (total)      638  
   data-arc span      8974 days (24.57 yr)  
   first obs. used      1976-12-27  
   last obs. used      2001-07-23  
   planetary ephem.      DE405  
   SB-pert. ephem.      SB405-CPV-2  
   condition code      1  
   fit RMS      .87432  
   data source      ORB  
   producer      M.S.W. Keesey  
   solution date      2003-Nov-13 16:13:45  

Additional Information
 Earth MOID = .28218 AU 
 T_jup = 2.505 
[ show covariance matrix ]

Ephemeris | Orbit Diagram | Orbital Elements | Physical Parameters | Discovery Circumstances | Close-Approach Data ]

Physical Parameter Table
Parameter Symbol Value Units Sigma Reference Notes
comet total magnitude M1 7. mag n/a ICQ 2001 Handbook  
comet total magnitude slope K1 20.0   n/a ICQ 2001 Handbook  
comet nuclear magnitude M2 16.5 mag n/a ICQ 2001 Handbook  
comet nuclear magnitude slope K2 10.0   n/a ICQ 2001 Handbook  
diameter diameter 2.6 km n/a Scotti,J (1994) BAAS 26:1375  

24P/Schaumasse          Discovered 1911-Dec-01 by Schaumasse, M. A. at Nice, France
Reference: comet.disLast Updated: 2003-08-29

[ hide close-approach data ]
Close-Approach Data   ...sorted by Date/Time (TDB)
Date/Time (TDB) Time Uncertainty
(days_HH:MM)
Body Nominal Distance (AU) Minimum Distance (AU) Maximum Distance (AU) V-relative (km/s) V-infinity (km/s) JD (TDB) Time Uncertainty (minutes) Semi-major axis (km) Semi-minor axis (km) range-LOV angle (deg) N-sigma BP Orbit Ref. Reference Modified
1913-Aug-02 03:08 00:12 Jupiter 0.351359383254349 0.351099640874488 0.351621048130766 9.76562047277555 9.51556306987512 2419981.63089 12.449898160099 6508.92521749432 128.545156478593 -77.0008505339453 64066.0554029485 T K014/19 CATAB v2.0a-linF95 2006-Mar-28 12:57:45 2006-Mar-28 12:57
1937-May-05 05:12 00:04 Jupiter 0.370179216125212 0.370145305803554 0.370213151315121 10.3535862215017 10.1301759143044 2428658.71701 4.00733292473054 941.133290003978 84.9025231146794 67.933153124056 102999.314508527 T K014/19 CATAB v2.0a-linF95 2006-Mar-28 12:57:45 2006-Mar-28 12:57
1950-Nov-19 03:42 00:02 Jupiter 1.96164422445576 1.96156960834844 1.9617188393961 14.513246463126 14.4834643176676 2433604.65474 2.24090906839909 1389.95845373461 35.3680803055126 19.3997328341391 653349.384726164 T K014/19 CATAB v2.0a-linF95 2006-Mar-28 12:57:45 2006-Mar-28 12:57
1952-Jan-27 21:40 00:03 Earth 0.268894842136692 0.268870548095759 0.268919191071156 7.54075476411462 7.53944058999486 2434039.40318 3.23148428718461 2744.50201138037 49.8153084441099 86.3293613019306 451527.078360668 T K014/19 CATAB v2.0a-linF95 2006-Mar-28 12:57:45 2006-Mar-28 12:57
1975-Jan-07 04:46 00:02 Jupiter 0.982778347513835 0.982770971734768 0.982785724238633 8.61024157438868 8.50955518273572 2442419.69916 2.14968085605237 153.132668748858 20.2759310698161 -86.1083411225163 1033660.76778242 T K014/19 CATAB v2.0a-linF95 2006-Mar-28 12:57:45 2006-Mar-28 12:57
2010-Mar-22 19:53 < 00:01 Ceres 0.0246582064857729 0.0246452318736448 0.0246711812593411 12.563495780832 12.5634944171293 2455278.32875 0.526549873972808 654.140093502395 58.6148516628904 -8.82160426725846 11128.1169795539 T K014/19 CATAB v2.0a-linF95 2006-Mar-28 12:57:45 2006-Mar-28 12:57
2020-Jul-31 13:52 00:06 Jupiter 1.60365634540634 1.6036301014648 1.60368258989744 7.23840418168609 7.16506322004248 2459062.07784 6.52073080060139 85.8856211348416 15.6286335709884 21.9322455837664 756344.58748437 T K014/19 CATAB v2.0a-linF95 2006-Mar-28 12:57:45 2006-Mar-28 12:57
2044-Jan-15 22:01 00:03 Jupiter 0.47593817378491 0.475929859482588 0.475946493953859 10.228262533728 10.0527595177559 2467630.41797 3.76269453520078 594.178725025776 62.5570519400595 78.860433846119 188327.098584625 T K014/19 CATAB v2.0a-linF95 2006-Mar-28 12:57:45 2006-Mar-28 12:57
2057-Oct-13 10:28 00:11 Jupiter 1.33666774434323 1.33641081269065 1.3369246662693 12.7909859420951 12.741348319613 2472649.93679 11.0752451183513 4212.3699311217 32.5903741563984 25.0540649880349 544478.83998901 T K014/19 CATAB v2.0a-linF95 2006-Mar-28 12:57:45 2006-Mar-28 12:57
2059-Jan-29 07:36 00:26 Earth 0.270106931838005 0.26992668056668 0.27028814987963 7.00889719373068 7.0074896219691 2473122.81692 26.5177982335374 16268.2278189342 60.2221744795391 -50.9942012129676 277512.759089858 T K014/19 CATAB v2.0a-linF95 2006-Mar-28 12:57:45 2006-Mar-28 12:57
2081-Jul-10 05:12 00:51 Jupiter 1.48188133800674 1.48151716483548 1.48224560137184 7.27034267964487 7.1912940978072 2481320.71721 51.8797760389301 1779.40421189068 53.4397959128395 -35.0613309254883 288234.455918597 T K014/19 CATAB v2.0a-linF95 2006-Mar-28 12:57:45 2006-Mar-28 12:57
2103-Dec-11 07:30 01:13 Jupiter 1.95748314578883 1.95729274082859 1.95767356808166 7.25854658850698 7.19868589210193 2489508.81303 73.811841136694 710.069567245914 75.6669660914261 -7.83712978335997 80140.3577057447 T K014/19 CATAB v2.0a-linF95 2006-Mar-28 12:57:45 2006-Mar-28 12:57
2117-Feb-04 16:54 00:47 Earth 0.293614345818422 0.293085599005506 0.294142845983653 5.72491186934222 5.72332651475174 2494313.20449 47.9207451829364 16861.3007778363 18.5355753260819 17.6421741692884 327868.746057444 T K014/19 CATAB v2.0a-linF95 2006-Mar-28 12:57:45 2006-Mar-28 12:57
2127-Jan-24 10:53 00:13 Jupiter 0.559700039066242 0.559530153727067 0.559870392128528 10.4006516223463 10.2541139279034 2497953.95398 13.0816251334358 5033.16712093962 155.619298510317 64.8956481915136 83542.969902952 T K014/19 CATAB v2.0a-linF95 2006-Mar-28 12:57:45 2006-Mar-28 12:57
2140-Dec-22 03:01 00:58 Jupiter 0.682977639539566 0.682044848722281 0.683912123036678 10.9132327306958 10.7989938039345 2503034.62582 58.4778203277233 15752.9517332865 50.7080159914046 46.1785476687004 261148.837145847 T K014/19 CATAB v2.0a-linF95 2006-Mar-28 12:57:45 2006-Mar-28 12:57
2164-May-02 02:28 04:29 Jupiter 1.73263779628263 1.73125311712099 1.73402311085874 7.26802785221417 7.20045157135033 2511566.6029 269.812739286373 6256.81105115904 25.9275990542773 -5.15014552029829 106263.627638978 T K014/19 CATAB v2.0a-linF95 2006-Mar-28 12:57:45 2006-Mar-28 12:57
2167-Feb-15 07:08 05:11 Earth 0.288774925226647 0.285366194618489 0.292197930643124 6.56745734275543 6.56605225945021 2512585.79773 311.426509580592 161755.391743274 52.0646707063419 -23.7049327806605 169256.65102748 T K014/19 CATAB v2.0a-linF95 2006-Mar-28 12:57:45 2006-Mar-28 12:57
2186-Oct-31 11:46 05:27 Jupiter 1.82213691865691 1.82092416647015 1.82335077021266 7.23453730205548 7.16999494919149 2519783.99043 327.529565309605 6418.09303099547 63.3207842231127 -46.6044688168967 376788.575246072 T K014/19 CATAB v2.0a-linF95 2006-Mar-28 12:57:45 2006-Mar-28 12:57
2200-Jul-10 22:08 04:07 Mars 0.0686169444655895 0.0667050214595996 0.0709824246926367 16.6010796463564 16.6008283181985 2524784.42257 247.140574118373 286315.8877453 223.78345947492 -68.7284537128361 40911.0329548909 T K014/19 CATAB v2.0a-linF95 2006-Mar-28 12:57:45 2006-Mar-28 12:57

Alternate Designations
 Perihelion 
Year
(est.)
 New-Style 
Desig
Roman
 Numeral 
Year/
 Letter 
 1993.1       1993 III   1992x 
 1984.8       1984 XXII   1984m 
 1976.6       1976 XV   
 1960.1       1960 III   1959h 
 1951.8       1952 III   1951l 
 1943.6       1943 V   1944a 
 1927.1       1927 VIII   1927g 
 1918.9   24P/1919 U1   1919 IV   1919e 
 1910.6   24P/1911 X1   1911 VII   1911h 
Ephemeris | Orbit Diagram | Orbital Elements | Physical Parameters | Discovery Circumstances | Close-Approach Data ]
ABOUT SSD CREDITS/AWARDS PRIVACY/COPYRIGHT GLOSSARY LINKS
FirstGov 2013-May-22 05:22 UT
(server date/time)  
NASA Home Page
Site Manager:   Donald K. Yeomans
Webmaster  Alan B. Chamberlin